owner,sensor,date,latitude,longitude,vertical_datum,sea_water_practical_salinity,qcFlag 
TABS,ioos:station:wmo:42046:1,2009-08-12T18:30:00Z,27.8903,-94.0367,2.0,36.56,11111222 
TABS,ioos:station:wmo:42046:1,2009-08-12T19:00:00Z,27.8903,-94.0367,2.0,36.58,11111222 
TABS,ioos:station:wmo:42046:1,2009-08-12T19:30:00Z,27.8903,-94.0367,2.0,36.59,11111222 
TABS,ioos:station:wmo:42046:1,2009-08-12T20:00:00Z,27.8903,-94.0367,2.0,36.59,11111222 
TABS,ioos:station:wmo:42046:1,2009-08-12T20:30:00Z,27.8903,-94.0367,2.0,36.59,11111222 
TABS,ioos:station:wmo:42046:1,2009-08-12T21:00:00Z,27.8903,-94.0367,2.0,36.6,11111222 
TABS,ioos:station:wmo:42046:1,2009-08-12T21:30:00Z,27.8903,-94.0367,2.0,36.6,11111222 
TABS,ioos:station:wmo:42046:1,2009-08-12T22:00:00Z,27.8903,-94.0367,2.0,36.6,11111222 
TABS,ioos:station:wmo:42046:1,2009-08-12T22:30:00Z,27.8903,-94.0367,2.0,36.59,11111222 
TABS,ioos:station:wmo:42046:1,2009-08-12T23:00:00Z,27.8903,-94.0367,2.0,36.6,11111222 
TABS,ioos:station:wmo:42046:1,2009-08-12T23:30:00Z,27.8903,-94.0367,2.0,36.6,11111222 
TABS,ioos:station:wmo:42046:1,2009-08-13T00:00:00Z,27.8903,-94.0367,2.0,36.6,11111222 
TABS,ioos:station:wmo:42046:1,2009-08-13T00:30:00Z,27.8903,-94.0367,2.0,36.6,11111222 
TABS,ioos:station:wmo:42046:1,2009-08-13T01:00:00Z,27.8903,-94.0367,2.0,36.61,11111222 
TABS,ioos:station:wmo:42046:1,2009-08-13T01:30:00Z,27.8903,-94.0367,2.0,36.61,11111222 
TABS,ioos:station:wmo:42046:1,2009-08-13T02:00:00Z,27.8903,-94.0367,2.0,36.61,11111222 
TABS,ioos:station:wmo:42046:1,2009-08-13T02:30:00Z,27.8903,-94.0367,2.0,36.61,11111222 
TABS,ioos:station:wmo:42046:1,2009-08-13T03:00:00Z,27.8903,-94.0367,2.0,36.62,11111222 
TABS,ioos:station:wmo:42046:1,2009-08-13T03:30:00Z,27.8903,-94.0367,2.0,36.63,11111222 
TABS,ioos:station:wmo:42046:1,2009-08-13T04:00:00Z,27.8903,-94.0367,2.0,36.62,11111222 
TABS,ioos:station:wmo:42046:1,2009-08-13T04:30:00Z,27.8903,-94.0367,2.0,36.63,11111222 
TABS,ioos:station:wmo:42046:1,2009-08-13T05:00:00Z,27.8903,-94.0367,2.0,36.62,11111222 
TABS,ioos:station:wmo:42046:1,2009-08-13T05:30:00Z,27.8903,-94.0367,2.0,36.64,11111222 
TABS,ioos:station:wmo:42046:1,2009-08-13T06:00:00Z,27.8903,-94.0367,2.0,36.65,11111222 
TABS,ioos:station:wmo:42046:1,2009-08-13T06:30:00Z,27.8903,-94.0367,2.0,36.65,11111222 
TABS,ioos:station:wmo:42046:1,2009-08-13T07:00:00Z,27.8903,-94.0367,2.0,36.64,11111222 
TABS,ioos:station:wmo:42046:1,2009-08-13T07:30:00Z,27.8903,-94.0367,2.0,36.65,11111222 
TABS,ioos:station:wmo:42046:1,2009-08-13T08:00:00Z,27.8903,-94.0367,2.0,36.64,11111222 
TABS,ioos:station:wmo:42046:1,2009-08-13T08:30:00Z,27.8903,-94.0367,2.0,36.64,11111222 
TABS,ioos:station:wmo:42046:1,2009-08-13T09:00:00Z,27.8903,-94.0367,2.0,36.65,11111222 
TABS,ioos:station:wmo:42046:1,2009-08-13T09:30:00Z,27.8903,-94.0367,2.0,36.65,11111222 
TABS,ioos:station:wmo:42046:1,2009-08-13T10:00:00Z,27.8903,-94.0367,2.0,36.65,11111222 
TABS,ioos:station:wmo:42046:1,2009-08-13T10:30:00Z,27.8903,-94.0367,2.0,36.66,11111222 
TABS,ioos:station:wmo:42046:1,2009-08-13T11:00:00Z,27.8903,-94.0367,2.0,36.65,11111222 
TABS,ioos:station:wmo:42046:1,2009-08-13T11:30:00Z,27.8903,-94.0367,2.0,36.65,11111222 
TABS,ioos:station:wmo:42046:1,2009-08-13T12:00:00Z,27.8903,-94.0367,2.0,36.65,11111222 
TABS,ioos:station:wmo:42046:1,2009-08-13T12:30:00Z,27.8903,-94.0367,2.0,36.65,11111222 
TABS,ioos:station:wmo:42046:1,2009-08-13T13:00:00Z,27.8903,-94.0367,2.0,36.65,11111222 
TABS,ioos:station:wmo:42046:1,2009-08-13T13:30:00Z,27.8903,-94.0367,2.0,36.65,11111222 
TABS,ioos:station:wmo:42046:1,2009-08-13T14:00:00Z,27.8903,-94.0367,2.0,36.65,11111222 
TABS,ioos:station:wmo:42046:1,2009-08-13T14:30:00Z,27.8903,-94.0367,2.0,36.65,11111222 
TABS,ioos:station:wmo:42046:1,2009-08-13T15:00:00Z,27.8903,-94.0367,2.0,36.65,11111222 
TABS,ioos:station:wmo:42046:1,2009-08-13T15:30:00Z,27.8903,-94.0367,2.0,36.65,11111222 
TABS,ioos:station:wmo:42046:1,2009-08-13T16:00:00Z,27.8903,-94.0367,2.0,36.65,11111222 
TABS,ioos:station:wmo:42046:1,2009-08-13T16:30:00Z,27.8903,-94.0367,2.0,36.65,11111222 
TABS,ioos:station:wmo:42046:1,2009-08-13T17:00:00Z,27.8903,-94.0367,2.0,36.64,11111222 
TABS,ioos:station:wmo:42046:1,2009-08-13T17:30:00Z,27.8903,-94.0367,2.0,36.64,11111222 
TABS,ioos:station:wmo:42046:1,2009-08-14T00:00:00Z,27.8903,-94.0367,2.0,36.63,11111222 
TABS,ioos:station:wmo:42046:1,2009-08-14T00:30:00Z,27.8903,-94.0367,2.0,36.63,11111222 
TABS,ioos:station:wmo:42046:1,2009-08-14T01:00:00Z,27.8903,-94.0367,2.0,36.63,11111222 
TABS,ioos:station:wmo:42046:1,2009-08-14T01:30:00Z,27.8903,-94.0367,2.0,36.64,11111222 
TABS,ioos:station:wmo:42046:1,2009-08-14T02:00:00Z,27.8903,-94.0367,2.0,36.65,11111222 
TABS,ioos:station:wmo:42046:1,2009-08-14T02:30:00Z,27.8903,-94.0367,2.0,36.64,11111222 
TABS,ioos:station:wmo:42046:1,2009-08-14T03:00:00Z,27.8903,-94.0367,2.0,36.63,11111222 
TABS,ioos:station:wmo:42046:1,2009-08-14T03:30:00Z,27.8903,-94.0367,2.0,36.63,11111222 
TABS,ioos:station:wmo:42046:1,2009-08-14T04:00:00Z,27.8903,-94.0367,2.0,36.63,11111222 
TABS,ioos:station:wmo:42046:1,2009-08-14T04:30:00Z,27.8903,-94.0367,2.0,36.62,11111222 
TABS,ioos:station:wmo:42046:1,2009-08-14T05:00:00Z,27.8903,-94.0367,2.0,36.62,11111222 
TABS,ioos:station:wmo:42046:1,2009-08-14T05:30:00Z,27.8903,-94.0367,2.0,36.62,11111222 
TABS,ioos:station:wmo:42046:1,2009-08-14T06:00:00Z,27.8903,-94.0367,2.0,36.61,11111222 
TABS,ioos:station:wmo:42046:1,2009-08-14T06:30:00Z,27.8903,-94.0367,2.0,36.61,11111222 
TABS,ioos:station:wmo:42046:1,2009-08-14T07:00:00Z,27.8903,-94.0367,2.0,36.61,11111222 
TABS,ioos:station:wmo:42046:1,2009-08-14T07:30:00Z,27.8903,-94.0367,2.0,36.62,11111222 
TABS,ioos:station:wmo:42046:1,2009-08-14T08:00:00Z,27.8903,-94.0367,2.0,36.61,11111222 
TABS,ioos:station:wmo:42046:1,2009-08-14T08:30:00Z,27.8903,-94.0367,2.0,36.61,11111222 
TABS,ioos:station:wmo:42046:1,2009-08-14T09:00:00Z,27.8903,-94.0367,2.0,36.62,11111222 
TABS,ioos:station:wmo:42046:1,2009-08-14T09:30:00Z,27.8903,-94.0367,2.0,36.61,11111222 
TABS,ioos:station:wmo:42046:1,2009-08-14T10:00:00Z,27.8903,-94.0367,2.0,36.61,11111222 
TABS,ioos:station:wmo:42046:1,2009-08-14T10:30:00Z,27.8903,-94.0367,2.0,36.62,11111222 
TABS,ioos:station:wmo:42046:1,2009-08-14T11:00:00Z,27.8903,-94.0367,2.0,36.62,11111222 
TABS,ioos:station:wmo:42046:1,2009-08-14T11:30:00Z,27.8903,-94.0367,2.0,36.62,11111222 
TABS,ioos:station:wmo:42046:1,2009-08-14T12:00:00Z,27.8903,-94.0367,2.0,36.62,11111222 
TABS,ioos:station:wmo:42046:1,2009-08-14T12:30:00Z,27.8903,-94.0367,2.0,36.61,11111222 
TABS,ioos:station:wmo:42046:1,2009-08-14T13:00:00Z,27.8903,-94.0367,2.0,36.62,11111222 
TABS,ioos:station:wmo:42046:1,2009-08-14T13:30:00Z,27.8903,-94.0367,2.0,36.62,11111222 
TABS,ioos:station:wmo:42046:1,2009-08-14T14:00:00Z,27.8903,-94.0367,2.0,36.62,11111222 
TABS,ioos:station:wmo:42046:1,2009-08-14T14:30:00Z,27.8903,-94.0367,2.0,36.62,11111222 
TABS,ioos:station:wmo:42046:1,2009-08-14T15:00:00Z,27.8903,-94.0367,2.0,36.63,11111222 
TABS,ioos:station:wmo:42046:1,2009-08-14T15:30:00Z,27.8903,-94.0367,2.0,36.64,11111222 
TABS,ioos:station:wmo:42046:1,2009-08-14T16:00:00Z,27.8903,-94.0367,2.0,36.65,11111222 
TABS,ioos:station:wmo:42046:1,2009-08-14T16:30:00Z,27.8903,-94.0367,2.0,36.64,11111222 
TABS,ioos:station:wmo:42046:1,2009-08-14T17:00:00Z,27.8903,-94.0367,2.0,36.72,11111222 
TABS,ioos:station:wmo:42046:1,2009-08-14T17:30:00Z,27.8903,-94.0367,2.0,36.65,11111222 
TABS,ioos:station:wmo:42046:1,2009-08-14T18:00:00Z,27.8903,-94.0367,2.0,36.64,11111222 
TABS,ioos:station:wmo:42046:1,2009-08-14T18:30:00Z,27.8903,-94.0367,2.0,36.7,11111222 
TABS,ioos:station:wmo:42046:1,2009-08-14T19:00:00Z,27.8903,-94.0367,2.0,36.66,11111222 
TABS,ioos:station:wmo:42046:1,2009-08-14T19:30:00Z,27.8903,-94.0367,2.0,36.64,11111222 
TABS,ioos:station:wmo:42046:1,2009-08-14T20:00:00Z,27.8903,-94.0367,2.0,36.67,11111222 
TABS,ioos:station:wmo:42046:1,2009-08-14T20:30:00Z,27.8903,-94.0367,2.0,36.68,11111222 
TABS,ioos:station:wmo:42046:1,2009-08-14T21:00:00Z,27.8903,-94.0367,2.0,36.69,11111222 
TABS,ioos:station:wmo:42046:1,2009-08-14T21:30:00Z,27.8903,-94.0367,2.0,36.66,11111222 
TABS,ioos:station:wmo:42046:1,2009-08-14T22:00:00Z,27.8903,-94.0367,2.0,36.66,11111222 
TABS,ioos:station:wmo:42046:1,2009-08-14T22:30:00Z,27.8903,-94.0367,2.0,36.66,11111222 
TABS,ioos:station:wmo:42046:1,2009-08-14T23:00:00Z,27.8903,-94.0367,2.0,36.67,11111222 
TABS,ioos:station:wmo:42046:1,2009-08-14T23:30:00Z,27.8903,-94.0367,2.0,36.66,11111222 
TABS,ioos:station:wmo:42046:1,2009-08-15T00:00:00Z,27.8903,-94.0367,2.0,36.65,11111222 
TABS,ioos:station:wmo:42046:1,2009-08-15T00:30:00Z,27.8903,-94.0367,2.0,36.64,11111222 
TABS,ioos:station:wmo:42046:1,2009-08-15T01:00:00Z,27.8903,-94.0367,2.0,36.65,11111222 
TABS,ioos:station:wmo:42046:1,2009-08-15T01:30:00Z,27.8903,-94.0367,2.0,36.65,11111222 
TABS,ioos:station:wmo:42046:1,2009-08-15T02:00:00Z,27.8903,-94.0367,2.0,36.65,11111222 
TABS,ioos:station:wmo:42046:1,2009-08-15T02:30:00Z,27.8903,-94.0367,2.0,36.65,11111222 
TABS,ioos:station:wmo:42046:1,2009-08-15T03:00:00Z,27.8903,-94.0367,2.0,36.66,11111222 
TABS,ioos:station:wmo:42046:1,2009-08-15T03:30:00Z,27.8903,-94.0367,2.0,36.65,11111222 
TABS,ioos:station:wmo:42046:1,2009-08-15T04:00:00Z,27.8903,-94.0367,2.0,36.65,11111222 
TABS,ioos:station:wmo:42046:1,2009-08-15T04:30:00Z,27.8903,-94.0367,2.0,36.65,11111222 
TABS,ioos:station:wmo:42046:1,2009-08-15T05:00:00Z,27.8903,-94.0367,2.0,36.65,11111222 
TABS,ioos:station:wmo:42046:1,2009-08-15T05:30:00Z,27.8903,-94.0367,2.0,36.65,11111222 
TABS,ioos:station:wmo:42046:1,2009-08-15T06:00:00Z,27.8903,-94.0367,2.0,36.65,11111222 
TABS,ioos:station:wmo:42046:1,2009-08-15T06:30:00Z,27.8903,-94.0367,2.0,36.65,11111222 
TABS,ioos:station:wmo:42046:1,2009-08-15T07:00:00Z,27.8903,-94.0367,2.0,36.65,11111222 
TABS,ioos:station:wmo:42046:1,2009-08-15T07:30:00Z,27.8903,-94.0367,2.0,36.65,11111222 
TABS,ioos:station:wmo:42046:1,2009-08-15T08:00:00Z,27.8903,-94.0367,2.0,36.65,11111222 
TABS,ioos:station:wmo:42046:1,2009-08-15T08:30:00Z,27.8903,-94.0367,2.0,36.65,11111222 
TABS,ioos:station:wmo:42046:1,2009-08-15T09:00:00Z,27.8903,-94.0367,2.0,36.66,11111222 
TABS,ioos:station:wmo:42046:1,2009-08-15T09:30:00Z,27.8903,-94.0367,2.0,36.66,11111222 
TABS,ioos:station:wmo:42046:1,2009-08-15T10:00:00Z,27.8903,-94.0367,2.0,36.66,11111222 
TABS,ioos:station:wmo:42046:1,2009-08-15T10:30:00Z,27.8903,-94.0367,2.0,36.66,11111222 
TABS,ioos:station:wmo:42046:1,2009-08-15T11:00:00Z,27.8903,-94.0367,2.0,36.65,11111222 
TABS,ioos:station:wmo:42046:1,2009-08-15T11:30:00Z,27.8903,-94.0367,2.0,36.65,11111222 
TABS,ioos:station:wmo:42046:1,2009-08-15T12:00:00Z,27.8903,-94.0367,2.0,36.65,11111222 
TABS,ioos:station:wmo:42046:1,2009-08-15T12:30:00Z,27.8903,-94.0367,2.0,36.65,11111222 
TABS,ioos:station:wmo:42046:1,2009-08-15T13:00:00Z,27.8903,-94.0367,2.0,36.65,11111222 
TABS,ioos:station:wmo:42046:1,2009-08-15T13:30:00Z,27.8903,-94.0367,2.0,36.65,11111222 
TABS,ioos:station:wmo:42046:1,2009-08-15T14:00:00Z,27.8903,-94.0367,2.0,36.65,11111222 
TABS,ioos:station:wmo:42046:1,2009-08-15T14:30:00Z,27.8903,-94.0367,2.0,36.65,11111222 
TABS,ioos:station:wmo:42046:1,2009-08-15T15:00:00Z,27.8903,-94.0367,2.0,36.65,11111222 
TABS,ioos:station:wmo:42046:1,2009-08-15T15:30:00Z,27.8903,-94.0367,2.0,36.65,11111222 
TABS,ioos:station:wmo:42046:1,2009-08-15T16:00:00Z,27.8903,-94.0367,2.0,36.67,11111222 
TABS,ioos:station:wmo:42046:1,2009-08-15T16:30:00Z,27.8903,-94.0367,2.0,36.66,11111222 
TABS,ioos:station:wmo:42046:1,2009-08-15T17:00:00Z,27.8903,-94.0367,2.0,36.67,11111222 
TABS,ioos:station:wmo:42046:1,2009-08-15T17:30:00Z,27.8903,-94.0367,2.0,36.67,11111222 
TABS,ioos:station:wmo:42046:1,2009-08-15T18:00:00Z,27.8903,-94.0367,2.0,36.67,11111222 
TABS,ioos:station:wmo:42046:1,2009-08-15T18:30:00Z,27.8903,-94.0367,2.0,36.65,11111222 
TABS,ioos:station:wmo:42046:1,2009-08-15T19:00:00Z,27.8903,-94.0367,2.0,36.66,11111222 
TABS,ioos:station:wmo:42046:1,2009-08-15T19:30:00Z,27.8903,-94.0367,2.0,36.66,11111222 
TABS,ioos:station:wmo:42046:1,2009-08-15T20:00:00Z,27.8903,-94.0367,2.0,36.67,11111222 
TABS,ioos:station:wmo:42046:1,2009-08-15T20:30:00Z,27.8903,-94.0367,2.0,36.68,11111222 
TABS,ioos:station:wmo:42046:1,2009-08-15T21:00:00Z,27.8903,-94.0367,2.0,36.68,11111222 
TABS,ioos:station:wmo:42046:1,2009-08-15T21:30:00Z,27.8903,-94.0367,2.0,36.68,11111222 
TABS,ioos:station:wmo:42046:1,2009-08-15T22:00:00Z,27.8903,-94.0367,2.0,36.68,11111222 
TABS,ioos:station:wmo:42046:1,2009-08-15T22:30:00Z,27.8903,-94.0367,2.0,36.68,11111222 
TABS,ioos:station:wmo:42046:1,2009-08-15T23:00:00Z,27.8903,-94.0367,2.0,36.67,11111222 
TABS,ioos:station:wmo:42046:1,2009-08-15T23:30:00Z,27.8903,-94.0367,2.0,36.67,11111222 
TABS,ioos:station:wmo:42046:1,2009-08-16T00:00:00Z,27.8903,-94.0367,2.0,36.67,11111222 
TABS,ioos:station:wmo:42046:1,2009-08-16T00:30:00Z,27.8903,-94.0367,2.0,36.67,11111222 
TABS,ioos:station:wmo:42046:1,2009-08-16T01:00:00Z,27.8903,-94.0367,2.0,36.66,11111222 
TABS,ioos:station:wmo:42046:1,2009-08-16T01:30:00Z,27.8903,-94.0367,2.0,36.66,11111222 
TABS,ioos:station:wmo:42046:1,2009-08-16T02:00:00Z,27.8903,-94.0367,2.0,36.66,11111222 
TABS,ioos:station:wmo:42046:1,2009-08-16T02:30:00Z,27.8903,-94.0367,2.0,36.66,11111222 
TABS,ioos:station:wmo:42046:1,2009-08-16T03:00:00Z,27.8903,-94.0367,2.0,36.66,11111222 
TABS,ioos:station:wmo:42046:1,2009-08-16T03:30:00Z,27.8903,-94.0367,2.0,36.66,11111222 
TABS,ioos:station:wmo:42046:1,2009-08-16T04:00:00Z,27.8903,-94.0367,2.0,36.66,11111222 
TABS,ioos:station:wmo:42046:1,2009-08-16T04:30:00Z,27.8903,-94.0367,2.0,36.66,11111222 
TABS,ioos:station:wmo:42046:1,2009-08-16T05:00:00Z,27.8903,-94.0367,2.0,36.66,11111222 
TABS,ioos:station:wmo:42046:1,2009-08-16T05:30:00Z,27.8903,-94.0367,2.0,36.66,11111222 
TABS,ioos:station:wmo:42046:1,2009-08-16T06:00:00Z,27.8903,-94.0367,2.0,36.66,11111222 
TABS,ioos:station:wmo:42046:1,2009-08-16T06:30:00Z,27.8903,-94.0367,2.0,36.66,11111222 
TABS,ioos:station:wmo:42046:1,2009-08-16T07:00:00Z,27.8903,-94.0367,2.0,36.66,11111222 
TABS,ioos:station:wmo:42046:1,2009-08-16T07:30:00Z,27.8903,-94.0367,2.0,36.66,11111222 
TABS,ioos:station:wmo:42046:1,2009-08-16T08:00:00Z,27.8903,-94.0367,2.0,36.66,11111222 
TABS,ioos:station:wmo:42046:1,2009-08-16T08:30:00Z,27.8903,-94.0367,2.0,36.67,11111222 
TABS,ioos:station:wmo:42046:1,2009-08-16T09:00:00Z,27.8903,-94.0367,2.0,36.66,11111222 
TABS,ioos:station:wmo:42046:1,2009-08-16T09:30:00Z,27.8903,-94.0367,2.0,36.66,11111222 
TABS,ioos:station:wmo:42046:1,2009-08-16T10:00:00Z,27.8903,-94.0367,2.0,36.67,11111222 
TABS,ioos:station:wmo:42046:1,2009-08-16T10:30:00Z,27.8903,-94.0367,2.0,36.65,11111222 
TABS,ioos:station:wmo:42046:1,2009-08-16T11:00:00Z,27.8903,-94.0367,2.0,36.65,11111222 
TABS,ioos:station:wmo:42046:1,2009-08-16T11:30:00Z,27.8903,-94.0367,2.0,36.65,11111222 
TABS,ioos:station:wmo:42046:1,2009-08-16T12:00:00Z,27.8903,-94.0367,2.0,36.64,11111222 
TABS,ioos:station:wmo:42046:1,2009-08-16T12:30:00Z,27.8903,-94.0367,2.0,36.63,11111222 
TABS,ioos:station:wmo:42046:1,2009-08-16T13:00:00Z,27.8903,-94.0367,2.0,36.63,11111222 
TABS,ioos:station:wmo:42046:1,2009-08-16T13:30:00Z,27.8903,-94.0367,2.0,36.63,11111222 
TABS,ioos:station:wmo:42046:1,2009-08-16T14:00:00Z,27.8903,-94.0367,2.0,36.63,11111222 
TABS,ioos:station:wmo:42046:1,2009-08-16T14:30:00Z,27.8903,-94.0367,2.0,36.62,11111222 
TABS,ioos:station:wmo:42046:1,2009-08-16T15:00:00Z,27.8903,-94.0367,2.0,36.63,11111222 
TABS,ioos:station:wmo:42046:1,2009-08-16T15:30:00Z,27.8903,-94.0367,2.0,36.63,11111222 
TABS,ioos:station:wmo:42046:1,2009-08-16T16:00:00Z,27.8903,-94.0367,2.0,36.63,11111222 
TABS,ioos:station:wmo:42046:1,2009-08-16T16:30:00Z,27.8903,-94.0367,2.0,36.63,11111222 
TABS,ioos:station:wmo:42046:1,2009-08-16T17:00:00Z,27.8903,-94.0367,2.0,36.64,11111222 
TABS,ioos:station:wmo:42046:1,2009-08-16T17:30:00Z,27.8903,-94.0367,2.0,36.64,11111222 
TABS,ioos:station:wmo:42046:1,2009-08-16T18:00:00Z,27.8903,-94.0367,2.0,36.65,11111222 
TABS,ioos:station:wmo:42046:1,2009-08-16T18:30:00Z,27.8903,-94.0367,2.0,36.66,11111222 
TABS,ioos:station:wmo:42046:1,2009-08-16T19:00:00Z,27.8903,-94.0367,2.0,36.67,11111222 
TABS,ioos:station:wmo:42046:1,2009-08-16T19:30:00Z,27.8903,-94.0367,2.0,36.68,11111222 
TABS,ioos:station:wmo:42046:1,2009-08-16T20:00:00Z,27.8903,-94.0367,2.0,36.69,11111222 
TABS,ioos:station:wmo:42046:1,2009-08-16T20:30:00Z,27.8903,-94.0367,2.0,36.67,11111222 
TABS,ioos:station:wmo:42046:1,2009-08-16T21:00:00Z,27.8903,-94.0367,2.0,36.68,11111222 
TABS,ioos:station:wmo:42046:1,2009-08-16T21:30:00Z,27.8903,-94.0367,2.0,36.68,11111222 
TABS,ioos:station:wmo:42046:1,2009-08-16T22:00:00Z,27.8903,-94.0367,2.0,36.68,11111222 
TABS,ioos:station:wmo:42046:1,2009-08-16T22:30:00Z,27.8903,-94.0367,2.0,36.67,11111222 
TABS,ioos:station:wmo:42046:1,2009-08-16T23:00:00Z,27.8903,-94.0367,2.0,36.68,11111222 
TABS,ioos:station:wmo:42046:1,2009-08-16T23:30:00Z,27.8903,-94.0367,2.0,36.68,11111222 
TABS,ioos:station:wmo:42046:1,2009-08-17T00:00:00Z,27.8903,-94.0367,2.0,36.68,11111222 
TABS,ioos:station:wmo:42046:1,2009-08-17T00:30:00Z,27.8903,-94.0367,2.0,36.68,11111222 
TABS,ioos:station:wmo:42046:1,2009-08-17T01:00:00Z,27.8903,-94.0367,2.0,36.68,11111222 
TABS,ioos:station:wmo:42046:1,2009-08-17T01:30:00Z,27.8903,-94.0367,2.0,36.68,11111222 
TABS,ioos:station:wmo:42046:1,2009-08-17T02:00:00Z,27.8903,-94.0367,2.0,36.68,11111222 
TABS,ioos:station:wmo:42046:1,2009-08-17T02:30:00Z,27.8903,-94.0367,2.0,36.68,11111222 
TABS,ioos:station:wmo:42046:1,2009-08-17T03:00:00Z,27.8903,-94.0367,2.0,36.68,11111222 
TABS,ioos:station:wmo:42046:1,2009-08-17T03:30:00Z,27.8903,-94.0367,2.0,36.67,11111222 
TABS,ioos:station:wmo:42046:1,2009-08-17T04:00:00Z,27.8903,-94.0367,2.0,36.68,11111222 
TABS,ioos:station:wmo:42046:1,2009-08-17T04:30:00Z,27.8903,-94.0367,2.0,36.67,11111222 
TABS,ioos:station:wmo:42046:1,2009-08-17T05:00:00Z,27.8903,-94.0367,2.0,36.67,11111222 
TABS,ioos:station:wmo:42046:1,2009-08-17T05:30:00Z,27.8903,-94.0367,2.0,36.68,11111222 
TABS,ioos:station:wmo:42046:1,2009-08-17T06:00:00Z,27.8903,-94.0367,2.0,36.68,11111222 
TABS,ioos:station:wmo:42046:1,2009-08-17T06:30:00Z,27.8903,-94.0367,2.0,36.67,11111222 
TABS,ioos:station:wmo:42046:1,2009-08-17T07:00:00Z,27.8903,-94.0367,2.0,36.67,11111222 
TABS,ioos:station:wmo:42046:1,2009-08-17T07:30:00Z,27.8903,-94.0367,2.0,36.67,11111222 
TABS,ioos:station:wmo:42046:1,2009-08-17T08:00:00Z,27.8903,-94.0367,2.0,36.67,11111222 
TABS,ioos:station:wmo:42046:1,2009-08-17T08:30:00Z,27.8903,-94.0367,2.0,36.67,11111222 
TABS,ioos:station:wmo:42046:1,2009-08-17T09:00:00Z,27.8903,-94.0367,2.0,36.67,11111222 
TABS,ioos:station:wmo:42046:1,2009-08-17T09:30:00Z,27.8903,-94.0367,2.0,36.67,11111222 
TABS,ioos:station:wmo:42046:1,2009-08-17T10:00:00Z,27.8903,-94.0367,2.0,36.67,11111222 
TABS,ioos:station:wmo:42046:1,2009-08-17T10:30:00Z,27.8903,-94.0367,2.0,36.67,11111222 
TABS,ioos:station:wmo:42046:1,2009-08-17T11:00:00Z,27.8903,-94.0367,2.0,36.67,11111222 
TABS,ioos:station:wmo:42046:1,2009-08-17T11:30:00Z,27.8903,-94.0367,2.0,36.67,11111222 
TABS,ioos:station:wmo:42046:1,2009-08-17T12:00:00Z,27.8903,-94.0367,2.0,36.67,11111222 
TABS,ioos:station:wmo:42046:1,2009-08-17T12:30:00Z,27.8903,-94.0367,2.0,36.67,11111222 
TABS,ioos:station:wmo:42046:1,2009-08-17T13:00:00Z,27.8903,-94.0367,2.0,36.67,11111222 
TABS,ioos:station:wmo:42046:1,2009-08-17T13:30:00Z,27.8903,-94.0367,2.0,36.66,11111222 
TABS,ioos:station:wmo:42046:1,2009-08-17T14:00:00Z,27.8903,-94.0367,2.0,36.67,11111222 
TABS,ioos:station:wmo:42046:1,2009-08-17T14:30:00Z,27.8903,-94.0367,2.0,36.67,11111222 
TABS,ioos:station:wmo:42046:1,2009-08-17T15:00:00Z,27.8903,-94.0367,2.0,36.66,11111222 
TABS,ioos:station:wmo:42046:1,2009-08-17T15:30:00Z,27.8903,-94.0367,2.0,36.66,11111222 
TABS,ioos:station:wmo:42046:1,2009-08-17T16:00:00Z,27.8903,-94.0367,2.0,36.66,11111222 
TABS,ioos:station:wmo:42046:1,2009-08-17T16:30:00Z,27.8903,-94.0367,2.0,36.67,11111222 
TABS,ioos:station:wmo:42046:1,2009-08-17T17:00:00Z,27.8903,-94.0367,2.0,36.68,11111222 
TABS,ioos:station:wmo:42046:1,2009-08-17T17:30:00Z,27.8903,-94.0367,2.0,36.67,11111222 
TABS,ioos:station:wmo:42046:1,2009-08-17T18:00:00Z,27.8903,-94.0367,2.0,36.67,11111222 
TABS,ioos:station:wmo:42046:1,2009-08-17T18:30:00Z,27.8903,-94.0367,2.0,36.67,11111222 
TABS,ioos:station:wmo:42046:1,2009-08-17T19:00:00Z,27.8903,-94.0367,2.0,36.67,11111222 
TABS,ioos:station:wmo:42046:1,2009-08-17T19:30:00Z,27.8903,-94.0367,2.0,36.68,11111222 
TABS,ioos:station:wmo:42046:1,2009-08-17T20:00:00Z,27.8903,-94.0367,2.0,36.67,11111222 
TABS,ioos:station:wmo:42046:1,2009-08-17T20:30:00Z,27.8903,-94.0367,2.0,36.67,11111222 
TABS,ioos:station:wmo:42046:1,2009-08-17T21:00:00Z,27.8903,-94.0367,2.0,36.68,11111222 
TABS,ioos:station:wmo:42046:1,2009-08-17T21:30:00Z,27.8903,-94.0367,2.0,36.7,11111222 
TABS,ioos:station:wmo:42046:1,2009-08-17T22:00:00Z,27.8903,-94.0367,2.0,36.69,11111222 
TABS,ioos:station:wmo:42046:1,2009-08-17T22:30:00Z,27.8903,-94.0367,2.0,36.68,11111222 
TABS,ioos:station:wmo:42046:1,2009-08-17T23:00:00Z,27.8903,-94.0367,2.0,36.67,11111222 
TABS,ioos:station:wmo:42046:1,2009-08-17T23:30:00Z,27.8903,-94.0367,2.0,36.68,11111222 
TABS,ioos:station:wmo:42046:1,2009-08-18T00:00:00Z,27.8903,-94.0367,2.0,36.67,11111222 
TABS,ioos:station:wmo:42046:1,2009-08-18T00:30:00Z,27.8903,-94.0367,2.0,36.68,11111222 
TABS,ioos:station:wmo:42046:1,2009-08-18T01:00:00Z,27.8903,-94.0367,2.0,36.67,11111222 
TABS,ioos:station:wmo:42046:1,2009-08-18T01:30:00Z,27.8903,-94.0367,2.0,36.67,11111222 
TABS,ioos:station:wmo:42046:1,2009-08-18T02:00:00Z,27.8903,-94.0367,2.0,36.66,11111222 
TABS,ioos:station:wmo:42046:1,2009-08-18T02:30:00Z,27.8903,-94.0367,2.0,36.66,11111222 
TABS,ioos:station:wmo:42046:1,2009-08-18T03:00:00Z,27.8903,-94.0367,2.0,36.66,11111222 
TABS,ioos:station:wmo:42046:1,2009-08-18T03:30:00Z,27.8903,-94.0367,2.0,36.65,11111222 
TABS,ioos:station:wmo:42046:1,2009-08-18T04:00:00Z,27.8903,-94.0367,2.0,36.65,11111222 
TABS,ioos:station:wmo:42046:1,2009-08-18T04:30:00Z,27.8903,-94.0367,2.0,36.65,11111222 
TABS,ioos:station:wmo:42046:1,2009-08-18T05:00:00Z,27.8903,-94.0367,2.0,36.65,11111222 
TABS,ioos:station:wmo:42046:1,2009-08-18T05:30:00Z,27.8903,-94.0367,2.0,36.65,11111222 
TABS,ioos:station:wmo:42046:1,2009-08-18T06:00:00Z,27.8903,-94.0367,2.0,36.66,11111222 
TABS,ioos:station:wmo:42046:1,2009-08-18T06:30:00Z,27.8903,-94.0367,2.0,36.66,11111222 
TABS,ioos:station:wmo:42046:1,2009-08-18T07:00:00Z,27.8903,-94.0367,2.0,36.66,11111222 
TABS,ioos:station:wmo:42046:1,2009-08-18T07:30:00Z,27.8903,-94.0367,2.0,36.66,11111222 
TABS,ioos:station:wmo:42046:1,2009-08-18T08:00:00Z,27.8903,-94.0367,2.0,36.65,11111222 
TABS,ioos:station:wmo:42046:1,2009-08-18T08:30:00Z,27.8903,-94.0367,2.0,36.66,11111222 
TABS,ioos:station:wmo:42046:1,2009-08-18T09:00:00Z,27.8903,-94.0367,2.0,36.65,11111222 
TABS,ioos:station:wmo:42046:1,2009-08-18T09:30:00Z,27.8903,-94.0367,2.0,36.65,11111222 
TABS,ioos:station:wmo:42046:1,2009-08-18T10:00:00Z,27.8903,-94.0367,2.0,36.65,11111222 
TABS,ioos:station:wmo:42046:1,2009-08-18T10:30:00Z,27.8903,-94.0367,2.0,36.65,11111222 
TABS,ioos:station:wmo:42046:1,2009-08-18T11:00:00Z,27.8903,-94.0367,2.0,36.65,11111222 
TABS,ioos:station:wmo:42046:1,2009-08-18T11:30:00Z,27.8903,-94.0367,2.0,36.65,11111222 
TABS,ioos:station:wmo:42046:1,2009-08-18T12:00:00Z,27.8903,-94.0367,2.0,36.65,11111222 
TABS,ioos:station:wmo:42046:1,2009-08-18T12:30:00Z,27.8903,-94.0367,2.0,36.65,11111222 
TABS,ioos:station:wmo:42046:1,2009-08-18T13:00:00Z,27.8903,-94.0367,2.0,36.65,11111222 
TABS,ioos:station:wmo:42046:1,2009-08-18T13:30:00Z,27.8903,-94.0367,2.0,36.65,11111222 
TABS,ioos:station:wmo:42046:1,2009-08-18T14:00:00Z,27.8903,-94.0367,2.0,36.65,11111222 
TABS,ioos:station:wmo:42046:1,2009-08-18T14:30:00Z,27.8903,-94.0367,2.0,36.65,11111222 
TABS,ioos:station:wmo:42046:1,2009-08-18T15:00:00Z,27.8903,-94.0367,2.0,36.65,11111222 
TABS,ioos:station:wmo:42046:1,2009-08-18T15:30:00Z,27.8903,-94.0367,2.0,36.66,11111222 